Location: Alando
(42.3054°N, 9.2895°E)
Time: 11:51:37
(UTC+00:00)

Cosmos 2181 Rocket - Pass Details

Date: 09 April 2020
Orbit: 952 x 1014 km, 82.9° (Epoch: 03 June)

Event Time Altitude Azimuth Distance (km) Brightness Sun altitude
Exits shadow 19:28:06 10° 166° (SSE) 2,759 6.0 -16.5°
Reaches altitude 10° 19:28:11 10° 166° (SSE) 2,728 6.0 -16.5°
Maximum altitude 19:34:12 53° 92° (E) 1,184 4.1 -17.5°
Drops below altitude 10° 19:40:11 10° 17° (NNE) 2,707 6.5 -18.4°
Sets 19:42:44 0° 13° (NNE) 3,651 7.2 -18.8°
